[TLELIST] Archives

 

[list_settings.list_name] Current TLEs

June 5th 2009 PDT

HST 1 20580U 90037B 09154.14808949 +.00000254 +00000-0 +66516-5 0 04036 2 20580 028.4700 193.9309 0003605 133.1182 226.9657 15.00806014847747 ISS (ZARYA) 1 25544U 98067A 09154.91441992 +.00015273 +00000-0 +11194-3 0 09715 2 25544 051.6417 015.0105 0009514 076.7415 023.9527 15.73350643603865 CXO 1 25867U 99040B 09155.91666667 +.00000115 +00000-0 +10000-3 0 03341 2 25867 065.3942 069.5883 7503488 275.9316 358.6506 00.37806631004962 ____________________________________________________________________ These 2-Line ...Continue Reading

[list_settings.list_name] Current TLEs

June 4th 2009 PDT

HST 1 20580U 90037B 09152.55208902 +.00000249 +00000-0 +62475-5 0 04025 2 20580 028.4695 204.3403 0003660 118.7893 241.3083 15.00805593847500 ISS (ZARYA) 1 25544U 98067A 09155.46834186 .00016200 00000-0 11388-3 0 9757 2 25544 051.6407 012.1721 0009207 076.0097 284.2456 15.73365779603953 CXO 1 25867U 99040B 09153.25000000 +.00000254 +00000-0 +10000-3 0 03332 2 25867 065.3798 069.6488 7496289 275.9666 355.5933 00.37805729004957 ____________________________________________________________________ These 2-Line ...Continue Reading

[list_settings.list_name] Current TLEs

June 3rd 2009 PDT

HST 1 20580U 90037B 09152.55208902 +.00000249 +00000-0 +62475-5 0 04025 2 20580 028.4695 204.3403 0003660 118.7893 241.3083 15.00805593847500 ISS (ZARYA) 1 25544U 98067A 09154.15063853 .00015690 00000-0 11498-3 0 9672 2 25544 051.6408 018.9295 0009394 072.7415 018.9709 15.73328503603742 CXO 1 25867U 99040B 09153.25000000 +.00000254 +00000-0 +10000-3 0 03332 2 25867 065.3798 069.6488 7496289 275.9666 355.5933 00.37805729004957 ____________________________________________________________________ These 2-Line ...Continue Reading

[list_settings.list_name] Current TLEs

June 2nd 2009 PDT

HST 1 20580U 90037B 09149.62608676 +.00000348 +00000-0 +13920-4 0 04010 2 20580 028.4712 223.4394 0003591 083.9094 276.1923 15.00805713847064 ISS (ZARYA) 1 25544U 98067A 09151.93169753 +.00016827 +00000-0 +12334-3 0 09540 2 25544 051.6404 030.3138 0009425 064.3354 051.1516 15.73258621603395 CXO 1 25867U 99040B 09153.25000000 +.00000254 +00000-0 +10000-3 0 03332 2 25867 065.3798 069.6488 7496289 275.9666 355.5933 00.37805729004957 ____________________________________________________________________ These 2-Line ...Continue Reading

[list_settings.list_name] Current TLEs

June 1st 2009 PDT

HST 1 20580U 90037B 09149.62608676 +.00000348 +00000-0 +13920-4 0 04010 2 20580 028.4712 223.4394 0003591 083.9094 276.1923 15.00805713847064 ISS (ZARYA) 1 25544U 98067A 09151.85594367 .00017147 00000-0 12560-3 0 9530 2 25544 051.6405 030.7003 0009502 065.3110 340.8382 15.73255794603384 CXO 1 25867U 99040B 09150.62500000 +.00000346 +00000-0 +10000-3 0 03326 2 25867 065.3653 069.7307 7491730 275.9926 358.1764 00.37807144004946 ____________________________________________________________________ These 2-Line ...Continue Reading

[list_settings.list_name] Current TLEs

May 31st 2009 PDT

HST 1 20580U 90037B 09147.89707800 +.00000329 +00000-0 +12449-4 0 04009 2 20580 028.4712 234.7206 0003560 065.6391 294.4299 15.00804921846804 ISS (ZARYA) 1 25544U 98067A 09150.84801883 .00014429 00000-0 10664-3 0 9478 2 25544 051.6406 035.8709 0009449 060.9492 032.7954 15.73210916603220 CXO 1 25867U 99040B 09150.62500000 +.00000346 +00000-0 +10000-3 0 03326 2 25867 065.3653 069.7307 7491730 275.9926 358.1764 00.37807144004946 ____________________________________________________________________ These 2-Line ...Continue Reading

[list_settings.list_name] Current TLEs

May 30th 2009 PDT

HST 1 20580U 90037B 09147.89707800 +.00000329 +00000-0 +12449-4 0 04009 2 20580 028.4712 234.7206 0003560 065.6391 294.4299 15.00804921846804 ISS (ZARYA) 1 25544U 98067A 09149.49778935 .00011959 00000-0 89367-4 0 9403 2 25544 051.6414 042.7951 0009550 056.6825 304.8801 15.73161110603012 CXO 1 25867U 99040B 09148.08333333 +.00000341 +00000-0 +10000-3 0 03310 2 25867 065.3630 069.8651 7485014 275.9940 012.1352 00.37804333004934 ____________________________________________________________________ These 2-Line ...Continue Reading

[list_settings.list_name] Current TLEs

May 29th 2009 PDT

HST 1 20580U 90037B 09146.50056831 +.00000955 +00000-0 +60572-4 0 03999 2 20580 028.4723 243.8310 0003727 053.1583 306.8828 15.00807874846595 ISS (ZARYA) 1 25544U 98067A 09149.14525309 .00012109 00000-0 90462-4 0 9361 2 25544 051.6415 044.6033 0009584 055.5156 108.1608 15.73152798602951 CXO 1 25867U 99040B 09148.08333333 +.00000341 +00000-0 +10000-3 0 03310 2 25867 065.3630 069.8651 7485014 275.9940 012.1352 00.37804333004934 ____________________________________________________________________ These 2-Line ...Continue Reading

[list_settings.list_name] Current TLEs

May 28th 2009 PDT

HST 1 20580U 90037B 09146.50056831 +.00000955 +00000-0 +60572-4 0 03999 2 20580 028.4723 243.8310 0003727 053.1583 306.8828 15.00807874846595 ISS (ZARYA) 1 25544U 98067A 09148.29059736 .00014615 00000-0 10376-3 0 9316 2 25544 051.6403 048.9902 0009377 051.2783 308.9582 15.73134603602821 CXO 1 25867U 99040B 09147.95833333 +.00000341 +00000-0 +10000-3 0 03309 2 25867 065.3621 069.8705 7484845 275.9938 355.1179 00.37802827004935 ____________________________________________________________________ These 2-Line ...Continue Reading

[list_settings.list_name] Current TLEs

May 27th 2009 PDT

HST 1 20580U 90037B 09143.50804273 +.00000954 +00000-0 +60572-4 0 03985 2 20580 028.4709 263.3630 0002932 019.6409 340.3038 15.00805724846141 ISS (ZARYA) 1 25544U 98067A 09145.88362593 +.00013823 +00000-0 +10295-3 0 09192 2 25544 051.6410 061.3262 0009693 043.8363 356.1448 15.73071691602440 CXO 1 25867U 99040B 09145.33333333 +.00000385 +00000-0 +10000-3 0 03290 2 25867 065.3593 069.9597 7476723 276.0490 357.6820 00.37795612004926 ____________________________________________________________________ These 2-Line ...Continue Reading
  • This mailing list is a public mailing list - anyone may join or leave, at any time.
  • This mailing list is announce-only.

International Space Station (ISS) / Hubble Space Telescope (HST) / Chandra X-Ray Observatory Orbital Data via EMAIL

Privacy Policy:

Private list